Location: Goodmans Corner
(38.2049°N, 120.9872°W)
Time: 13:53:39
(UTC+00:00)

Envisat - Pass Details

Date: 21 October 2019
Orbit: 764 x 766 km, 98.1° (Epoch: 14 November)

Event Time Altitude Azimuth Distance (km) Brightness Sun altitude
Rises 01:48:16 0° 155° (SSE) 3,218 6.1 -6.4°
Reaches altitude 10° 01:50:36 10° 151° (SSE) 2,296 5.3 -6.9°
Maximum altitude 01:55:33 57° 73° (ENE) 902 3.1 -7.8°
Drops below altitude 10° 02:00:31 10° 356° (N) 2,310 5.5 -8.8°
Sets 02:02:52 0° 353° (N) 3,240 6.3 -9.3°
